Location: Carole Heights
(41.1624°N, 111.9588°W)
Time: 15:07:48
(UTC+00:00)

N. Korean satellite - Visible Passes

Search period start: 08 March 2021 00:00
Search period end: 18 March 2021 00:00
Orbit: 451 x 502 km, 97.2° (Epoch: 07 March)

Date Brightness Start Highest point End Pass type
(mag) Time Alt. Az. Time Alt. Az. Time Alt. Az.
08 Mar 7.6 12:37:10 10° NNE 12:40:40 49° E 12:44:11 10° S visible
09 Mar 9.2 12:10:55 10° NE 12:13:48 22° E 12:16:42 10° SSE visible
10 Mar 10.1 11:45:57 10° ENE 11:46:50 11° E 11:47:42 10° ESE visible
10 Mar 6.9 13:16:53 10° N 13:20:21 45° WNW 13:23:50 10° SSW visible
11 Mar 6.8 12:49:59 10° NNE 12:53:36 76° ESE 12:57:14 10° S visible
12 Mar 8.5 12:23:28 10° NNE 12:26:46 33° E 12:30:05 10° SSE visible
13 Mar 9.7 11:57:34 10° NE 11:59:49 16° E 12:02:06 10° SE visible
14 Mar 6.5 13:02:50 10° N 13:06:28 71° WNW 13:10:07 10° SSW visible
15 Mar 7.7 12:36:07 10° NNE 12:39:40 49° E 12:43:13 10° S visible
16 Mar 9.2 12:09:49 10° NE 12:12:45 22° E 12:15:40 10° SSE visible
17 Mar 10.1 11:44:51 10° ENE 11:45:44 11° E 11:46:37 10° ESE visible
